MSG 3 DEB (COOLER COVER), 40871

Orbit data source: Space-Track

MSG 3 DEB (COOLER COVER), 40871 is space debris in GEO originally from a launch on Thu, 05 Jul 2012 UTC launched from the French Guiana (FRGUI). Debris objects in space refer to the collection of defunct objects orbiting the Earth. Examples of debris include non-operational satellites, rocket bodies, and fragments generated from explosions, collisions, or faulty payload assembly.

Not visible in the next 10 days
Identifier
40871, 2012-035E
Orbit
GEO
Country
Flag of DEDE / EUME
Related business
Manufacturer
SENER
Mission
Spacecraft
Bus & Motor
MSG COVER, Unknown motor
Mass
~0 kg wet, ~10 kg dry
Launch date (UTC)
2012-07-05 (14 years ago)
Launch vehicle
Unknown
Launch site
French Guiana (FRGUI)
Object type
Payload
Rocket body
Debris
Shape & HBR
Cyl, 0.8 m
Radar Cross Section
1.552 m², Medium (>0.1 m² and < 1m²)

Expand to show TLE details & history
Last TLE update: 2 days ago

TLE from 2 days ago
0 MSG 3 DEB (COOLER COVER)
1 40871U 12035E   26171.48543178 -.00000138  00000-0  00000+0 0  9990
2 40871   9.7201  57.6346 0028687 310.3837 206.1718  1.01521822  7035
Epoch: 2026-06-20T11:39Z
TLE epoch observation values (Epoch: 2026-06-20T11:39:01.305Z)
Latitude
3.87236°
Longitude
130.91453°
Altitude
35,546.179 km
Speed
3.08 km/s
True Right ascension
14h 17m 28s
True Declination
3° 52' 06"
Sunlit
Object was in daylight at epoch
Visualization orbit readout
Latitude
Unknown
Longitude
Unknown
Altitude
Unknown
Speed
Unknown
Apparent Right ascension
Unknown
Apparent Declination
Unknown
Sunlit
N/A
Visualization observer readout
Local Sidereal Time
21:36:43
Azimuth
Unknown
Elevation
Unknown
Doppler factor
Unknown
Orbital elements
Apogee altitude
35,560.765 km
Perigee altitude
35,320.833 km
Semi-major axis
41,818.936 km
Eccentricity
0.00287
Inclination
9.7201°
RAAN
57.6346°
Arg. of periapsis
310.3837°
True anomaly
206.02727°
Mean anomaly
206.1718°
Eccentric anomaly
206.09949°
Mean motion
0.2538 °/min
Orbital period
1,418.47 mins
BSTAR
0
Loading maneuver chart data...
Computing Atmospheric mass density...
Loading historical data...
Loading historical data...
Loading historical data...
Loading historical data...
Loading historical data...
Loading historical data...
Loading historical data...

Documentation

Showing up to 5 results
|